Location: Newark
(41.6500°N, 71.4833°W)
Time: 07:01:36
(UTC+00:00)

deb Explorer IX - Pass Details

Date: 26 January 2020
Orbit: 549 x 1099 km, 38.8° (Epoch: 20 February)

Event Time Altitude Azimuth Distance (km) Brightness Sun altitude
Rises 05:45:30 0° 275° (W) 3,893 - -65.1°
Reaches altitude 10° 05:48:18 10° 272° (W) 2,948 - -64.8°
Maximum altitude 05:55:29 61° 194° (SSW) 1,213 - -64.1°
Drops below altitude 10° 06:02:18 10° 116° (ESE) 2,803 - -63.4°
Sets 06:04:54 0° 113° (ESE) 3,690 - -63.1°
